Voltar ao catálogo

SATELIOT_4

AtivoComunicaçõesSSO
NORAD 60537·PAYLOAD·🇪🇸 Spain

Lançado Aug 16, 2024 de Vandenberg Space Force Base

Loading…

Próximas Passagens (próximas 24 horas)

TLE

AtualizadoSource: Space-Track

Época: Sep 13, 2026, 05:07 UTC

1 60537U 24149BX  26256.21327843  .00001640  00000-0  14784-3 0  9990
2 60537  97.6667 329.0127 0003588  99.6918 260.4709 14.96918596113140

Acompanhe SATELIOT_4 em tempo real com AllMySat

Download on the App Store